Home   Weather   Freiberg   Past weeks

Flag for Germany Past Weather in Freiberg, Saxony, Germany — Yesterday and Last 2 Weeks

Now
32 °F

Clear.


Feels Like: 27 °F
Forecast: 24 / 34 °F
Wind: 5 mph from West

Location: Dresden-Klotzsche

Current Time: Dec 2, 2016 at 11:19:39 pm

Latest Report: Dec 2, 2016 at 10:50 pm


Visibility: 10 mi

Pressure: 30.18 "Hg

Humidity: 87%

Dew Point: 28 °F

Location of FreibergLocation

Past Weather in Freiberg — Graph

°F

Freiberg Temperature Yesterday

Maximum temperature yesterday: 43 °F (at 11:20 pm)
Minimum temperature yesterday: 34 °F (at 12:20 am)
Average temperature yesterday: 38 °F

High & Low Weather Summary for the Past Weeks

 TemperatureHumidityPressure
High61 °F (Nov 18, 12:50 pm)100% (Nov 19, 4:20 pm)30.54 "Hg (Nov 19, 4:20 pm)
Low21 °F (Nov 30, 1:50 am)44% (Nov 30, 11:20 am)29.53 "Hg (Nov 18, 11:20 am)
Average40 °F86%30.03 "Hg
* Reported Nov 17 10:20 pm — Dec 2 10:20 pm, Freiberg, Weather by CustomWeather, © 2016

Note: Actual official high and low records may vary slightly from our data, if they occured in-between our weather recording intervals... More about our weather records

Advertising

Freiberg Weather History for the Previous 24 Hours

Scroll right to see more
 ConditionsComfort  
Time TempWeatherWind HumidityBarometerVisibility
10:20 pm
Fri, Dec 2
32 °FPassing clouds.5 mph87%30.18 "HgN/A
9:50 pm32 °FClear.5 mph87%30.18 "Hg10 mi
9:20 pm34 °FClear.6 mph87%30.15 "Hg10 mi
8:50 pm34 °FPassing clouds.5 mph87%30.15 "HgN/A
8:20 pm34 °FClear.5 mph81%30.15 "Hg10 mi
7:50 pm32 °FPassing clouds.6 mph93%30.15 "HgN/A
7:20 pm34 °FClear.7 mph87%30.15 "Hg10 mi
6:50 pm34 °FPassing clouds.6 mph87%30.15 "HgN/A
6:20 pm34 °FPassing clouds.7 mph87%30.12 "HgN/A
5:50 pm34 °FPassing clouds.6 mph87%30.12 "HgN/A
5:20 pm34 °FPassing clouds.7 mph87%30.12 "HgN/A
4:50 pm36 °FPassing clouds.7 mph75%30.12 "HgN/A
4:20 pm36 °FPassing clouds.5 mph81%30.09 "HgN/A
3:50 pm37 °FPassing clouds.9 mph75%30.09 "HgN/A
3:20 pm39 °FScattered clouds.8 mph70%30.09 "HgN/A
2:50 pm37 °FScattered clouds.10 mph75%30.09 "HgN/A
2:20 pm39 °FScattered clouds.10 mph70%30.07 "HgN/A
1:50 pm39 °FPassing clouds.15 mph70%30.07 "HgN/A
1:20 pm39 °FPassing clouds.14 mph70%30.07 "HgN/A
12:50 pm39 °FScattered clouds.15 mph70%30.07 "HgN/A
12:20 pm39 °FScattered clouds.14 mph70%30.04 "HgN/A
11:50 am39 °FScattered clouds.14 mph75%30.04 "HgN/A
11:20 am37 °FPartly sunny.13 mph81%30.04 "HgN/A
10:50 am39 °FPartly sunny.13 mph75%30.04 "HgN/A
10:20 am39 °FScattered clouds.15 mph75%30.01 "HgN/A
9:50 am37 °FScattered clouds.15 mph81%30.01 "HgN/A
9:20 am37 °FScattered clouds.17 mph81%29.98 "HgN/A
8:50 am37 °FPassing clouds.14 mph81%29.98 "HgN/A
8:20 am37 °FPassing clouds.13 mph87%29.95 "HgN/A
7:50 am37 °FSunny.14 mph81%29.92 "Hg10 mi
7:20 am39 °FClear.15 mph81%29.92 "Hg10 mi
6:50 am39 °FPassing clouds.16 mph81%29.89 "HgN/A
6:20 am39 °FPassing clouds.15 mph81%29.86 "HgN/A
5:50 am41 °FPartly cloudy.20 mph70%29.83 "HgN/A
5:20 am39 °FLight rain. Passing clouds.26 mph87%29.83 "HgN/A
4:50 am43 °FLight rain. Partly cloudy.25 mph81%29.83 "HgN/A
4:20 am43 °FLight rain. Passing clouds.20 mph87%29.80 "HgN/A
3:50 am43 °FLight rain. Overcast.18 mph87%29.80 "HgN/A
3:20 am41 °FLight rain. Passing clouds.24 mph93%29.80 "HgN/A
2:50 am41 °FLight rain. Mostly cloudy.26 mph100%29.83 "HgN/A
2:20 am43 °FLight rain. Passing clouds.16 mph93%29.83 "HgN/A
1:50 am41 °FLight rain. Passing clouds.21 mph100%29.80 "Hg6 mi
1:20 am41 °FLight rain. Passing clouds.18 mph100%29.83 "HgN/A
12:50 am41 °FRain. Passing clouds.17 mph100%29.80 "Hg5 mi
12:20 am41 °FLight rain. Partly cloudy.16 mph93%29.83 "Hg5 mi
11:50 pm
Thu, Dec 1
41 °FLight rain. Partly cloudy.20 mph93%29.83 "Hg5 mi
11:20 pm43 °FLight rain. Partly cloudy.18 mph87%29.83 "HgN/A
Weather by CustomWeather, © 2016

See weather overviewHow to use our weather pages